Regional Weather Roundup
Issued by NWS

Home | Current Version | Previous Version | Text Only | Print | Product List | Glossary On
Versions: 1 2 3 4 5 6 7 8 9 10 11 12 13 14 15 16 17 18 19 20 21 22 23 24 25 26 27 28 29 30 31 32 33 34 35 36 37 38 39 40 41 42 43 44 45 46 47 48 49 50
000
ASUS43 KTOP 240108
RWRKS

WEATHER ROUNDUP FOR KANSAS
NATIONAL WEATHER SERVICE GOODLAND KS
800 PM CDT SUN JUL 23 2017

NOTE:  "FAIR" INDICATES FEW OR NO CLOUDS BELOW 12,000 FEET WITH NO
SIGNIFICANT WEATHER AND/OR OBSTRUCTIONS TO VISIBILITY.

KSZ001>006-013>018-027>032-041>047-240200-
NORTHWEST KANSAS

CITY           SKY/WX    TMP DP  RH WIND       PRES   REMARKS
GOODLAND       SUNNY     86  55  34 S10       30.05S
HAYS             N/A     92  61  35 E9        29.94S
HILL CITY      CLEAR     92  60  34 E7        29.96S
RUSSELL        CLEAR     92  61  35 E7        29.92S
$$

KSZ061>065-074>080-084>089-240200-
SOUTHWEST KANSAS

CITY           SKY/WX    TMP DP  RH WIND       PRES   REMARKS
DODGE CITY     CLEAR     87  60  40 SE9       29.98R
ELKHART          N/A     85  55  35 NE10        N/A
GARDEN CITY    SUNNY     89  58  34 E7        30.00R
LIBERAL        CLEAR     88  63  43 E13       30.00S
PRATT          CLEAR     87  64  46 E6        29.95R
$$

KSZ066>073-081>083-090>101-240200-
SOUTHEAST KANSAS

CITY           SKY/WX    TMP DP  RH WIND       PRES   REMARKS
CHANUTE        CLEAR     88  70  55 E5        29.89S
COFFEYVILLE    CLEAR     88  70  55 N6        29.87S HAZE
HUTCHINSON     PTCLDY    88  68  51 E7        29.92R
MEDICINE LODGE   N/A     92  63  38 NE9       29.91R
NEWTON         MOCLDY    86  72  62 E5        29.93R
PARSONS        CLEAR     86  76  71 CALM      29.89S HX  96
WICHITA INTL   PTCLDY    89  69  51 E6        29.91R
WICHITA JABRA  CLEAR     87  71  58 E5        29.91R
WICHITA MCCONL CLEAR     90  66  46 E6        29.92R
WINFIELD       CLEAR     91  66  43 NE6       29.91R
$$

KSZ007>012-019>026-033>040-048>060-102>105-240200-
NORTHEAST KANSAS

CITY           SKY/WX    TMP DP  RH WIND       PRES   REMARKS
CONCORDIA      CLEAR     87  67  51 N7        29.91S
EMPORIA        PTCLDY    86  73  65 SE6       29.90R
LAWRENCE       PTCLDY    90  77  65 CALM      29.87R HX 103
MANHATTAN      CLEAR     93  69  45 CALM      29.87S HX  98
MARYSVILLE     CLEAR     86  68  54 NE7       29.92R
OLATHE IND     PTCLDY    87  75  67 CALM      29.89S HX  96
OLATHE EXE     PTCLDY    84  76  76 S5        29.89R
SALINA         CLEAR     94  60  32 NE6       29.90R
TOPEKA BILLARD PTCLDY    89  73  59 SE5       29.87S HX  97
TOPEKA FORBES  MOCLDY    88  76  67 S3        29.88S HX  99
$$




USA.gov is the U.S. government's official web portal to all federal, state and local government web resources and services.